Location: Unspecified
(0.0000°N, 0.0000°E)
Time: 01:15:40
(UTC+02:00)

Ariane H10 - Visible Passes

Search period start: 06 July 2015 00:00
Search period end: 16 July 2015 00:00
Orbit: 408 x 35135 km, 4.3° (Epoch: 05 July)

Date Brightness Start Highest point End Pass type
(mag) Time Alt. Az. Time Alt. Az. Time Alt. Az.
06 Jul 7.8 02:19:38 35° E 02:19:38 35° E 11:39:32 10° E visible
08 Jul 7.5 06:12:32 28° W 07:01:33 89° S 15:55:45 10° E visible
09 Jul 7.5 02:57:42 53° ESE 02:57:42 53° ESE 12:24:04 10° E visible
11 Jul 7.0 06:50:36 15° W 16:22:53 83° N 16:35:30 10° E visible
12 Jul 7.3 03:35:45 74° ESE 03:35:45 74° ESE 13:06:45 10° E visible
13 Jul 3.1 20:27:54 10° W 20:35:25 74° S 20:38:09 10° E visible
14 Jul 6.5 07:30:57 10° W 17:06:02 83° N 17:14:58 10° E visible
15 Jul 7.3 04:13:48 80° SW 04:16:34 84° S 13:48:16 10° E visible
